Time,TemperatureF,DewpointF,PressureIn,WindDirection,WindDirectionDegrees,WindSpeedMPH,WindSpeedGustMPH,Humidity,HourlyPrecipIn,Conditions,Clouds,dailyrainin,SolarRadiationWatts/m^2,SoftwareType,DateUTC
2013-10-15 00:04:00,52.6,48.0,29.80,WNW,300,13.0,27.0,85,0.00,,,0.00,0,weatherlink.com 1.10,2013-10-15 05:04:00,
2013-10-15 00:20:00,52.3,48.0,29.81,WNW,298,12.0,15.0,86,0.00,,,0.00,0,weatherlink.com 1.10,2013-10-15 05:20:00,
2013-10-15 00:35:00,51.9,48.0,29.81,West,275,9.0,20.0,85,0.00,,,0.00,0,weatherlink.com 1.10,2013-10-15 05:35:00,
2013-10-15 00:50:00,51.4,47.0,29.82,WNW,298,9.0,20.0,84,0.00,,,0.00,0,weatherlink.com 1.10,2013-10-15 05:50:00,
2013-10-15 01:05:00,51.2,46.0,29.82,NW,319,8.0,23.0,83,0.00,,,0.00,0,weatherlink.com 1.10,2013-10-15 06:05:00,
2013-10-15 01:20:00,50.5,45.0,29.83,WNW,288,15.0,25.0,82,0.00,,,0.00,0,weatherlink.com 1.10,2013-10-15 06:20:00,
2013-10-15 01:35:00,49.8,45.0,29.83,West,277,15.0,23.0,82,0.00,,,0.00,0,weatherlink.com 1.10,2013-10-15 06:35:00,
2013-10-15 01:50:00,49.5,44.0,29.84,West,268,17.0,22.0,82,0.00,,,0.00,0,weatherlink.com 1.10,2013-10-15 06:50:00,
2013-10-15 03:00:00,47.4,42.0,29.88,WNW,296,10.0,21.0,81,0.00,,,0.00,0,weatherlink.com 1.10,2013-10-15 08:00:00,
2013-10-15 03:05:00,47.3,42.0,29.87,NW,306,12.0,21.0,82,0.00,,,0.00,0,weatherlink.com 1.10,2013-10-15 08:05:00,
2013-10-15 03:20:00,47.3,42.0,29.88,WNW,290,12.0,22.0,81,0.00,,,0.00,0,weatherlink.com 1.10,2013-10-15 08:20:00,
2013-10-15 03:36:00,47.2,42.0,29.88,West,281,15.0,20.0,82,0.00,,,0.00,0,weatherlink.com 1.10,2013-10-15 08:36:00,
2013-10-15 03:51:00,47.0,41.0,29.88,NW,312,10.0,17.0,81,0.00,,,0.00,0,weatherlink.com 1.10,2013-10-15 08:51:00,
2013-10-15 04:06:00,46.9,41.0,29.88,West,277,8.0,17.0,81,0.00,,,0.00,0,weatherlink.com 1.10,2013-10-15 09:06:00,
2013-10-15 04:21:00,47.2,41.0,29.88,West,276,10.0,21.0,80,0.00,,,0.00,0,weatherlink.com 1.10,2013-10-15 09:21:00,
2013-10-15 04:36:00,47.2,41.0,29.89,WNW,289,10.0,23.0,80,0.00,,,0.00,0,weatherlink.com 1.10,2013-10-15 09:36:00,
2013-10-15 04:51:00,47.0,41.0,29.89,WNW,298,14.0,24.0,80,0.00,,,0.00,0,weatherlink.com 1.10,2013-10-15 09:51:00,
2013-10-15 05:06:00,47.0,41.0,29.89,West,277,7.0,19.0,79,0.00,,,0.00,0,weatherlink.com 1.10,2013-10-15 10:06:00,
2013-10-15 05:21:00,46.9,41.0,29.89,WNW,285,7.0,22.0,79,0.00,,,0.00,0,weatherlink.com 1.10,2013-10-15 10:21:00,
2013-10-15 05:36:00,46.8,41.0,29.90,WNW,282,11.0,17.0,79,0.00,,,0.00,0,weatherlink.com 1.10,2013-10-15 10:36:00,
2013-10-15 05:51:00,46.6,41.0,29.90,WNW,286,9.0,16.0,80,0.00,,,0.00,0,weatherlink.com 1.10,2013-10-15 10:51:00,
2013-10-15 06:06:00,46.4,40.0,29.90,West,281,14.0,20.0,79,0.00,,,0.00,0,weatherlink.com 1.10,2013-10-15 11:06:00,
2013-10-15 06:36:00,45.7,39.0,29.91,West,281,12.0,19.0,78,0.00,,,0.00,0,weatherlink.com 1.10,2013-10-15 11:36:00,
2013-10-15 06:51:00,44.8,39.0,29.93,WNW,286,9.0,19.0,79,0.00,,,0.00,0,weatherlink.com 1.10,2013-10-15 11:51:00,
2013-10-15 07:06:00,44.0,39.0,29.93,NW,311,6.0,14.0,82,0.00,,,0.00,0,weatherlink.com 1.10,2013-10-15 12:06:00,
2013-10-15 07:21:00,43.4,39.0,29.93,WNW,292,3.0,9.0,83,0.00,,,0.00,0,weatherlink.com 1.10,2013-10-15 12:21:00,
2013-10-15 07:36:00,42.7,39.0,29.93,WNW,287,5.0,9.0,85,0.00,,,0.00,0,weatherlink.com 1.10,2013-10-15 12:36:00,
2013-10-15 07:51:00,42.6,38.0,29.94,West,281,5.0,9.0,84,0.00,,,0.00,9,weatherlink.com 1.10,2013-10-15 12:51:00,
2013-10-15 08:06:00,42.4,38.0,29.94,West,270,4.0,13.0,84,0.00,,,0.00,21,weatherlink.com 1.10,2013-10-15 13:06:00,
2013-10-15 08:21:00,42.8,38.0,29.95,West,278,12.0,15.0,83,0.00,,,0.00,19,weatherlink.com 1.10,2013-10-15 13:21:00,
2013-10-15 08:36:00,43.2,38.0,29.95,West,272,6.0,23.0,82,0.00,,,0.00,25,weatherlink.com 1.10,2013-10-15 13:36:00,
2013-10-15 08:51:00,44.0,39.0,29.95,WNW,290,9.0,13.0,81,0.00,,,0.00,40,weatherlink.com 1.10,2013-10-15 13:51:00,
2013-10-15 09:06:00,44.3,39.0,29.96,NW,324,15.0,19.0,80,0.00,,,0.00,234,weatherlink.com 1.10,2013-10-15 14:06:00,
2013-10-15 09:21:00,45.3,39.0,29.96,WNW,300,16.0,21.0,78,0.00,,,0.00,322,weatherlink.com 1.10,2013-10-15 14:21:00,
2013-10-15 09:36:00,45.5,39.0,29.97,West,269,16.0,25.0,77,0.00,,,0.00,200,weatherlink.com 1.10,2013-10-15 14:36:00,
2013-10-15 09:51:00,45.2,39.0,29.97,NW,304,7.0,22.0,78,0.00,,,0.00,158,weatherlink.com 1.10,2013-10-15 14:51:00,
2013-10-15 10:07:00,45.7,39.0,29.98,NW,313,10.0,24.0,77,0.00,,,0.00,193,weatherlink.com 1.10,2013-10-15 15:07:00,
2013-10-15 10:22:00,46.3,40.0,29.98,NW,309,16.0,25.0,79,0.00,,,0.00,225,weatherlink.com 1.10,2013-10-15 15:22:00,
2013-10-15 10:37:00,46.5,40.0,29.99,WNW,294,13.0,20.0,77,0.00,,,0.00,218,weatherlink.com 1.10,2013-10-15 15:37:00,
2013-10-15 10:52:00,47.2,40.0,29.99,WNW,303,10.0,19.0,76,0.00,,,0.00,269,weatherlink.com 1.10,2013-10-15 15:52:00,
2013-10-15 11:07:00,47.4,40.0,30.00,WNW,290,16.0,20.0,76,0.00,,,0.00,197,weatherlink.com 1.10,2013-10-15 16:07:00,
2013-10-15 11:22:00,47.8,41.0,30.00,West,277,7.0,22.0,76,0.00,,,0.00,216,weatherlink.com 1.10,2013-10-15 16:22:00,
2013-10-15 11:37:00,47.8,40.0,30.01,WNW,288,14.0,22.0,75,0.00,,,0.00,200,weatherlink.com 1.10,2013-10-15 16:37:00,
2013-10-15 11:52:00,47.8,40.0,30.01,NW,314,16.0,26.0,74,0.00,,,0.00,243,weatherlink.com 1.10,2013-10-15 16:52:00,
2013-10-15 12:07:00,48.0,40.0,30.02,WNW,286,15.0,26.0,74,0.00,,,0.00,206,weatherlink.com 1.10,2013-10-15 17:07:00,
2013-10-15 12:22:00,48.1,40.0,30.02,NW,304,18.0,22.0,74,0.00,,,0.00,202,weatherlink.com 1.10,2013-10-15 17:22:00,
2013-10-15 12:37:00,49.2,42.0,30.02,WNW,288,13.0,21.0,75,0.00,,,0.00,327,weatherlink.com 1.10,2013-10-15 17:37:00,
2013-10-15 12:52:00,50.1,41.0,30.01,WNW,294,15.0,25.0,72,0.00,,,0.00,432,weatherlink.com 1.10,2013-10-15 17:52:00,
2013-10-15 13:07:00,49.9,41.0,30.01,NW,317,12.0,22.0,72,0.00,,,0.00,230,weatherlink.com 1.10,2013-10-15 18:07:00,
2013-10-15 13:22:00,49.6,42.0,30.01,WNW,286,19.0,22.0,74,0.00,,,0.00,271,weatherlink.com 1.10,2013-10-15 18:22:00,
2013-10-15 13:37:00,49.3,41.0,30.01,West,274,11.0,22.0,72,0.00,,,0.00,216,weatherlink.com 1.10,2013-10-15 18:37:00,
2013-10-15 13:52:00,49.7,42.0,30.00,WNW,290,12.0,24.0,74,0.00,,,0.00,308,weatherlink.com 1.10,2013-10-15 18:52:00,
2013-10-15 14:07:00,50.0,41.0,30.00,NW,304,11.0,25.0,70,0.00,,,0.00,260,weatherlink.com 1.10,2013-10-15 19:07:00,
2013-10-15 14:22:00,49.6,41.0,30.00,WNW,283,9.0,21.0,73,0.00,,,0.00,183,weatherlink.com 1.10,2013-10-15 19:22:00,
2013-10-15 14:37:00,49.8,41.0,30.00,NW,323,11.0,24.0,72,0.00,,,0.00,267,weatherlink.com 1.10,2013-10-15 19:37:00,
2013-10-15 14:52:00,49.4,41.0,30.01,NW,313,15.0,24.0,72,0.00,,,0.00,163,weatherlink.com 1.10,2013-10-15 19:52:00,
2013-10-15 15:07:00,49.2,41.0,30.01,NNW,327,13.0,24.0,73,0.00,,,0.00,232,weatherlink.com 1.10,2013-10-15 20:07:00,
2013-10-15 15:22:00,49.2,41.0,30.01,NW,307,18.0,24.0,72,0.00,,,0.00,253,weatherlink.com 1.10,2013-10-15 20:22:00,
2013-10-15 15:37:00,49.4,41.0,30.01,NW,310,13.0,24.0,72,0.00,,,0.00,155,weatherlink.com 1.10,2013-10-15 20:37:00,
2013-10-15 15:52:00,49.3,41.0,30.02,NW,326,19.0,27.0,73,0.00,,,0.00,193,weatherlink.com 1.10,2013-10-15 20:52:00,
2013-10-15 16:07:00,49.0,41.0,30.02,NW,313,14.0,20.0,73,0.00,,,0.00,144,weatherlink.com 1.10,2013-10-15 21:07:00,
2013-10-15 16:22:00,48.8,40.0,30.02,NW,310,10.0,25.0,73,0.00,,,0.00,123,weatherlink.com 1.10,2013-10-15 21:22:00,
2013-10-15 16:37:00,48.7,41.0,30.02,WNW,302,9.0,25.0,74,0.00,,,0.00,141,weatherlink.com 1.10,2013-10-15 21:37:00,
2013-10-15 16:52:00,48.6,40.0,30.02,NNW,329,17.0,24.0,73,0.00,,,0.00,178,weatherlink.com 1.10,2013-10-15 21:52:00,
2013-10-15 17:07:00,48.5,40.0,30.02,NNW,329,18.0,23.0,73,0.00,,,0.00,91,weatherlink.com 1.10,2013-10-15 22:07:00,
2013-10-15 17:22:00,48.1,41.0,30.02,NW,313,14.0,21.0,75,0.00,,,0.00,62,weatherlink.com 1.10,2013-10-15 22:22:00,
2013-10-15 17:37:00,47.8,40.0,30.02,NW,317,8.0,18.0,75,0.00,,,0.00,67,weatherlink.com 1.10,2013-10-15 22:37:00,
2013-10-15 17:52:00,47.6,40.0,30.03,NW,306,12.0,24.0,75,0.00,,,0.00,30,weatherlink.com 1.10,2013-10-15 22:52:00,
2013-10-15 18:07:00,47.2,40.0,30.03,NW,321,13.0,22.0,76,0.00,,,0.00,18,weatherlink.com 1.10,2013-10-15 23:07:00,
2013-10-15 18:22:00,47.0,40.0,30.04,WNW,291,8.0,19.0,77,0.00,,,0.00,11,weatherlink.com 1.10,2013-10-15 23:22:00,
2013-10-15 18:37:00,46.9,40.0,30.04,NW,313,13.0,18.0,77,0.00,,,0.00,9,weatherlink.com 1.10,2013-10-15 23:37:00,
2013-10-15 18:52:00,46.7,40.0,30.05,NW,324,6.0,14.0,77,0.00,,,0.00,0,weatherlink.com 1.10,2013-10-15 23:52:00,
2013-10-15 19:07:00,46.5,40.0,30.05,WNW,288,11.0,17.0,78,0.00,,,0.00,0,weatherlink.com 1.10,2013-10-16 00:07:00,
2013-10-15 19:22:00,46.5,40.0,30.06,NW,319,9.0,15.0,79,0.00,,,0.00,0,weatherlink.com 1.10,2013-10-16 00:22:00,
2013-10-15 19:37:00,46.4,40.0,30.07,NW,313,9.0,17.0,78,0.00,,,0.00,0,weatherlink.com 1.10,2013-10-16 00:37:00,
2013-10-15 19:53:00,46.4,40.0,30.08,WNW,300,9.0,14.0,77,0.00,,,0.00,0,weatherlink.com 1.10,2013-10-16 00:53:00,
2013-10-15 20:08:00,46.3,40.0,30.08,NW,304,8.0,17.0,79,0.00,,,0.00,0,weatherlink.com 1.10,2013-10-16 01:08:00,
2013-10-15 20:23:00,46.2,40.0,30.08,NW,309,6.0,16.0,78,0.00,,,0.00,0,weatherlink.com 1.10,2013-10-16 01:23:00,
2013-10-15 20:38:00,46.0,40.0,30.08,WNW,283,6.0,16.0,79,0.00,,,0.00,0,weatherlink.com 1.10,2013-10-16 01:38:00,
2013-10-15 20:53:00,46.0,40.0,30.09,WNW,302,8.0,14.0,80,0.00,,,0.00,0,weatherlink.com 1.10,2013-10-16 01:53:00,
2013-10-15 21:08:00,45.9,40.0,30.09,NW,313,16.0,21.0,80,0.00,,,0.00,0,weatherlink.com 1.10,2013-10-16 02:08:00,
2013-10-15 21:23:00,45.5,40.0,30.09,NW,312,11.0,20.0,81,0.00,,,0.00,0,weatherlink.com 1.10,2013-10-16 02:23:00,
2013-10-15 21:38:00,45.5,40.0,30.09,WNW,289,8.0,16.0,81,0.00,,,0.00,0,weatherlink.com 1.10,2013-10-16 02:38:00,
2013-10-15 21:53:00,45.1,40.0,30.10,WNW,301,8.0,17.0,83,0.00,,,0.00,0,weatherlink.com 1.10,2013-10-16 02:53:00,
2013-10-15 22:08:00,45.1,41.0,30.10,NNW,338,12.0,18.0,84,0.00,,,0.00,0,weatherlink.com 1.10,2013-10-16 03:08:00,
2013-10-15 22:23:00,45.1,41.0,30.10,NW,307,5.0,15.0,84,0.00,,,0.00,0,weatherlink.com 1.10,2013-10-16 03:23:00,
2013-10-15 22:38:00,45.1,41.0,30.11,NW,315,7.0,16.0,85,0.00,,,0.00,0,weatherlink.com 1.10,2013-10-16 03:38:00,
2013-10-15 22:53:00,44.9,41.0,30.10,WNW,298,10.0,11.0,85,0.00,,,0.00,0,weatherlink.com 1.10,2013-10-16 03:53:00,
2013-10-15 23:08:00,44.9,41.0,30.11,NNW,335,6.0,14.0,86,0.00,,,0.00,0,weatherlink.com 1.10,2013-10-16 04:08:00,
2013-10-15 23:23:00,44.9,41.0,30.11,WNW,286,7.0,13.0,86,0.00,,,0.00,0,weatherlink.com 1.10,2013-10-16 04:23:00,
2013-10-15 23:38:00,44.8,41.0,30.11,NW,304,7.0,13.0,86,0.00,,,0.00,0,weatherlink.com 1.10,2013-10-16 04:38:00,
2013-10-15 23:53:00,44.9,41.0,30.10,NW,314,5.0,14.0,85,0.00,,,0.00,0,weatherlink.com 1.10,2013-10-16 04:53:00,